FW6381 Weather Reports


Display with metric or nautical units.
time (UTC)temp
F
wind
direction
speed
MPH
gust
MPH
rain 1hr
in
rain 24hr
in
rain mn
in
humidity
%
barometer
mb
20260504204003 71 232 12.0 24.0 0.00 0.00 0.00 42 1003.7
20260504203503 71 231 10.0 20.0 0.00 0.00 0.00 43 1003.6
20260504203003 71 218 11.0 28.0 0.00 0.00 0.00 44 1003.5
20260504202503 71 217 13.0 28.0 0.00 0.00 0.00 43 1003.5
20260504202214 71 222 12.0 28.0 0.00 0.00 0.00 43 1003.7
20260504201713 71 230 11.0 26.0 0.00 0.00 0.00 43 1003.7
20260504201003 70 228 10.0 23.0 0.00 0.00 0.00 43 1003.7
20260504200503 70 227 10.0 23.0 0.00 0.00 0.00 44 1003.8
20260504200003 71 227 10.0 22.0 0.00 0.00 0.00 43 1003.8
20260504195713 71 227 11.0 23.0 0.00 0.00 0.00 44 1004.0
20260504195214 71 223 11.0 23.0 0.00 0.00 0.00 45 1004.0
20260504194505 71 213 10.0 24.0 0.00 0.00 0.00 43 1004.0
20260504194214 71 213 11.0 24.0 0.00 0.00 0.00 46 1004.1
20260504193503 70 220 11.0 24.0 0.00 0.00 0.00 45 1004.3
20260504193006 70 221 11.0 22.0 0.00 0.00 0.00 46 1004.4
20260504192503 70 229 10.0 22.0 0.00 0.00 0.00 45 1004.3
20260504192005 70 231 12.0 29.0 0.00 0.00 0.00 46 1004.6
20260504191503 70 230 13.0 29.0 0.00 0.00 0.00 45 1004.6
20260504191214 70 230 13.0 29.0 0.00 0.00 0.00 46 1004.7
20260504190503 70 236 12.0 24.0 0.00 0.00 0.00 45 1004.7
20260504190003 69 232 15.0 24.0 0.00 0.00 0.00 45 1004.9
20260504185504 69 233 15.0 33.0 0.00 0.00 0.00 47 1004.8
20260504185003 69 229 15.0 33.0 0.00 0.00 0.00 46 1004.9
20260504184505 69 229 14.0 28.0 0.00 0.00 0.00 45 1004.8
20260504184003 69 232 13.0 27.0 0.00 0.00 0.00 46 1005.0
20260504183503 69 228 12.0 26.0 0.00 0.00 0.00 47 1005.1
20260504183004 69 228 13.0 27.0 0.00 0.00 0.00 46 1005.0
20260504182713 69 224 12.0 27.0 0.00 0.00 0.00 48 1005.1
20260504182214 68 223 11.0 27.0 0.00 0.00 0.00 48 1005.2
20260504181503 68 227 13.0 24.0 0.00 0.00 0.00 50 1005.2
20260504181003 68 231 14.0 29.0 0.00 0.00 0.00 50 1005.2
20260504180712 68 234 15.0 29.0 0.00 0.00 0.00 48 1005.4
20260504180003 68 233 13.0 26.0 0.00 0.00 0.00 48 1005.5
20260504175505 68 231 10.0 26.0 0.00 0.00 0.00 50 1005.6
20260504175003 68 243 11.0 23.0 0.00 0.00 0.00 50 1005.6
20260504174503 67 245 12.0 27.0 0.00 0.00 0.00 50 1005.7
20260504174003 67 244 12.0 27.0 0.00 0.00 0.00 50 1005.7
20260504173505 67 241 13.0 24.0 0.00 0.00 0.00 51 1005.7
20260504173003 66 242 14.0 29.0 0.00 0.00 0.00 51 1005.7
20260504172504 66 239 13.0 28.0 0.00 0.00 0.00 51 1005.8
20260504172005 66 234 12.0 27.0 0.00 0.00 0.00 52 1005.9
20260504171505 66 230 14.0 32.0 0.00 0.00 0.00 53 1005.8
20260504171003 65 227 15.0 32.0 0.00 0.00 0.00 53 1005.8
20260504170714 65 230 16.0 32.0 0.00 0.00 0.00 52 1005.9
20260504150503 62 227 15.0 40.0 0.00 0.00 0.00 54 1006.8
20260504141003 60 226 17.0 37.0 0.00 0.00 0.00 55 1006.4
20260504140505 60 224 17.0 33.0 0.00 0.00 0.00 54 1006.5
20260504130503 58 219 14.0 31.0 0.00 0.00 0.00 56 1006.8
20260504110503 51 203 6.0 12.0 0.00 0.00 0.00 64 1007.1
20260504100503 51 207 6.0 14.0 0.00 0.00 0.00 63 1006.8
20260504082003 50 195 4.0 10.0 0.00 0.00 0.00 65 1007.7
20260504081503 49 203 5.0 10.0 0.00 0.00 0.00 67 1007.8
20260504081005 49 215 5.0 10.0 0.00 0.00 0.00 68 1007.8
20260504080503 48 220 5.0 10.0 0.00 0.00 0.00 70 1007.8
20260504050503 51 230 14.0 27.0 0.00 0.00 0.00 68 1009.1
20260504050215 51 232 15.0 29.0 0.00 0.00 0.00 68 1009.2
20260504045503 51 229 14.0 29.0 0.00 0.00 0.00 68 1009.2
20260504045003 51 228 11.0 22.0 0.00 0.00 0.00 67 1009.3
20260504044505 50 235 11.0 24.0 0.00 0.00 0.00 67 1009.4
20260504044003 50 238 11.0 24.0 0.00 0.00 0.00 68 1009.4
20260504043505 50 245 9.0 19.0 0.00 0.00 0.00 68 1009.4
20260504043003 50 256 8.0 18.0 0.00 0.00 0.00 68 1009.4
20260504042503 50 246 8.0 18.0 0.00 0.00 0.00 67 1009.3
20260504042003 50 233 9.0 19.0 0.00 0.00 0.00 67 1009.3
20260504041503 50 235 10.0 19.0 0.00 0.00 0.00 67 1009.2
20260504041003 50 238 13.0 27.0 0.00 0.00 0.00 66 1009.2
20260504040505 50 240 13.0 28.0 0.00 0.00 0.00 66 1009.2
20260504040005 50 235 13.0 28.0 0.00 0.00 0.00 66 1009.3
20260504035503 50 227 11.0 27.0 0.00 0.00 0.00 65 1009.2
20260504035005 51 227 12.0 27.0 0.00 0.00 0.00 65 1009.1
20260504034504 51 228 12.0 24.0 0.00 0.00 0.00 65 1009.2
20260504034212 51 227 12.0 24.0 0.00 0.00 0.00 64 1009.1
20260504033715 51 229 10.0 22.0 0.00 0.00 0.00 65 1009.2
20260504033003 51 241 10.0 20.0 0.00 0.00 0.00 64 1009.3
20260504032503 52 242 12.0 27.0 0.00 0.00 0.00 63 1009.4
20260504032004 52 241 13.0 29.0 0.00 0.00 0.00 62 1009.3
20260504031504 52 235 14.0 29.0 0.00 0.00 0.00 62 1009.4
20260504031005 52 230 13.0 27.0 0.00 0.00 0.00 60 1009.4
20260504030503 52 229 12.0 27.0 0.00 0.00 0.00 60 1009.5
20260504030003 52 228 12.0 31.0 0.00 0.00 0.00 60 1009.4
20260504025503 52 229 13.0 31.0 0.00 0.00 0.00 60 1009.5
20260504025003 52 230 13.0 31.0 0.00 0.00 0.00 60 1009.4
20260504024503 52 229 14.0 29.0 0.00 0.00 0.00 60 1009.3
20260504024003 52 230 14.0 29.0 0.00 0.00 0.00 60 1009.4
20260504023503 52 234 14.0 28.0 0.00 0.00 0.00 60 1009.4
20260504023003 52 232 14.0 28.0 0.00 0.00 0.00 60 1009.4
20260504022503 52 228 14.0 28.0 0.00 0.00 0.00 60 1009.3
20260504022003 52 231 14.0 28.0 0.00 0.00 0.00 60 1009.5
20260504021504 52 234 14.0 26.0 0.00 0.00 0.00 62 1009.6
20260504021003 52 231 13.0 26.0 0.00 0.00 0.00 62 1009.5
20260504020503 52 226 13.0 26.0 0.00 0.00 0.00 63 1009.5
20260504020004 52 227 11.0 26.0 0.00 0.00 0.00 63 1009.5
20260504015505 52 224 11.0 29.0 0.00 0.00 0.00 62 1009.5
20260504015003 52 224 13.0 29.0 0.00 0.00 0.00 62 1009.5
20260504014503 52 232 14.0 29.0 0.00 0.00 0.00 62 1009.4
20260504014003 52 232 14.0 27.0 0.00 0.00 0.00 62 1009.5
20260504013714 52 229 13.0 26.0 0.00 0.00 0.00 62 1009.4
20260504013003 52 227 12.0 26.0 0.00 0.00 0.00 60 1009.5
20260504012503 53 228 12.0 26.0 0.00 0.00 0.00 59 1009.5
20260504012213 53 229 11.0 24.0 0.00 0.00 0.00 58 1009.5
20260504011504 54 232 10.0 23.0 0.00 0.00 0.00 56 1009.6
20260504011213 54 233 10.0 23.0 0.00 0.00 0.00 54 1009.5
20260504010503 54 239 8.0 19.0 0.00 0.00 0.00 53 1009.5
20260504010005 54 240 10.0 23.0 0.00 0.00 0.00 53 1009.4
20260504005714 54 241 11.0 23.0 0.00 0.00 0.00 53 1009.4
20260504005003 54 247 14.0 23.0 0.00 0.00 0.00 53 1009.3
20260504004503 54 246 14.0 33.0 0.00 0.00 0.00 53 1009.3
20260504004213 54 243 14.0 33.0 0.00 0.00 0.00 54 1009.4
20260504003504 54 247 11.0 22.0 0.00 0.00 0.00 54 1009.3
20260504003003 53 250 11.0 23.0 0.00 0.00 0.00 56 1009.4
20260504002503 53 245 12.0 23.0 0.00 0.00 0.00 56 1009.3
20260504002003 53 243 13.0 24.0 0.00 0.00 0.00 56 1009.3
20260504001714 53 245 13.0 24.0 0.00 0.00 0.00 57 1009.3
20260504001004 53 249 13.0 27.0 0.00 0.00 0.00 58 1009.4
20260504000714 53 248 14.0 27.0 0.00 0.00 0.00 58 1009.4
20260504000003 53 249 11.0 27.0 0.00 0.00 0.00 58 1009.5
20260503235503 53 251 11.0 18.0 0.00 0.00 0.00 58 1009.6
20260503235003 53 253 12.0 22.0 0.00 0.00 0.00 58 1009.5
20260503234503 53 251 13.0 23.0 0.00 0.00 0.00 58 1009.6
20260503234004 53 248 14.0 24.0 0.00 0.00 0.00 58 1009.8
20260503233503 53 250 13.0 24.0 0.00 0.00 0.00 58 1009.7
20260503233003 53 251 11.0 24.0 0.00 0.00 0.00 59 1009.8
20260503232505 53 254 12.0 24.0 0.00 0.00 0.00 59 1009.7
20260503232003 53 254 13.0 23.0 0.00 0.00 0.00 60 1009.7
20260503231505 53 250 12.0 23.0 0.00 0.00 0.00 60 1009.8
20260503231003 53 252 13.0 31.0 0.00 0.00 0.00 60 1009.6
20260503230503 53 253 14.0 31.0 0.00 0.00 0.00 62 1009.8
20260503230003 53 245 15.0 31.0 0.00 0.00 0.00 60 1009.8
20260503225503 53 249 16.0 33.0 0.00 0.00 0.00 60 1009.8
20260503225003 53 252 15.0 33.0 0.00 0.00 0.00 60 1009.8
20260503224713 53 249 14.0 33.0 0.00 0.00 0.00 60 1009.8
20260503224005 53 243 14.0 28.0 0.00 0.00 0.00 60 1009.8
20260503223503 53 243 12.0 27.0 0.00 0.00 0.00 60 1009.9
20260503223003 53 241 12.0 23.0 0.00 0.00 0.00 60 1009.9
20260503222504 53 245 14.0 32.0 0.00 0.00 0.00 62 1010.0
20260503222005 52 251 15.0 32.0 0.00 0.00 0.00 63 1010.1
20260503221503 52 247 15.0 31.0 0.00 0.00 0.00 62 1010.1
20260503221214 52 245 15.0 28.0 0.00 0.00 0.00 62 1010.1
20260503220713 52 244 15.0 41.0 0.00 0.00 0.00 62 1009.9
20260503220003 52 241 17.0 41.0 0.00 0.00 0.00 62 1009.8
20260503215503 52 237 16.0 31.0 0.00 0.00 0.00 63 1009.8
20260503215005 52 235 14.0 31.0 0.00 0.00 0.00 63 1009.8
20260503214505 52 237 14.0 27.0 0.00 0.00 0.00 64 1009.8
20260503214005 52 238 14.0 31.0 0.00 0.00 0.00 64 1009.7
20260503213503 52 230 13.0 31.0 0.00 0.00 0.00 65 1009.6
20260503213003 52 228 12.0 26.0 0.00 0.00 0.00 66 1009.5
20260503212503 52 229 12.0 26.0 0.00 0.00 0.00 66 1009.4
20260503212214 52 227 12.0 28.0 0.00 0.00 0.00 66 1009.4
20260503211503 51 224 13.0 28.0 0.00 0.00 0.00 67 1009.4
20260503211003 51 228 13.0 24.0 0.00 0.00 0.00 67 1009.5
20260503210713 50 228 12.0 28.0 0.00 0.00 0.00 68 1009.6
20260503210005 50 223 12.0 28.0 0.00 0.00 0.00 67 1009.7
20260503205503 50 223 14.0 32.0 0.00 0.00 0.00 67 1009.8
20260503205003 51 227 14.0 32.0 0.00 0.00 0.00 66 1009.9
20260503204503 51 226 12.0 27.0 0.00 0.00 0.00 65 1009.9